Погода в Петрозаводске

Погода в Петрозаводске : погода сейчас, прогноз погоды и архив. Всё, что Вы хотите узнать о погоде в Петрозаводске!

Хотите узнать прогноз погоды в Петрозаводске? Тогда Вам сюда: Погода в Петрозаводске

Поиск расширенной информации на нашем сайте:

Полезная информация:

Другие новости

Новости СМИ2

Главная страница сайта

Новости сайта

03.07.2017

Напоминаем, что на нашем специализированном сайте Метеоцентр.Азия вы можете получить высокодетализированные автоматические прогнозы погоды по пунктам России, СНГ и мира в авиационном формате (включающие направление и скорость ветра, видимость, явления погоды, количество и форму облачности, нижнюю и верхнюю границу облачности).

Рекомендуем:

Погода в Петрозаводске - сегодня

Время (UTC), дата Ветер
(°,м/с) 
Видим.   Явления Облачность Т
(°С)
Тd
(°С)
f(%) Тe
(°С)
Pmin
(гПа)
dP
(гПа)
Po
(мм)
O2
(г/м3)
Тmin Tmax R s Состояние
почвы
09 15.09.19 250 (З) 26000 м    10/4 600 м средняя, верхняя 
[Cu med, cong|Ac trans|Ci fib]
+11.5 +5.6 67 +11  1004.1  -2.3  743  286           
12 15.09.19 210 (ЮЗ) 4{11}  20000 м  в посл. час ливневой дождь  10/5 600 м кучево-дожд., средняя 
[Cb calv|Ac trans]
+10.2 +6.1 76 +9  1000.5  -3.6  741  287           
15 15.09.19 180 (Ю) 5{11}  20000 м    10/4 600 м кучево-дожд., средняя 
[Cb calv|Ac As]
+8.1 +4.1 76 +7  996  -4.5  737  288      0.3     
18 15.09.19 150 (ЮВ) 3{10}  20000 м  в посл. час ливневой дождь  10/6 300 м кучево-дожд., средняя 
[Cb calv|Ac trans]
+7.2 +5.3 88 +6  990.3  -5.7  733  287    +13.1  0.4     
21 15.09.19 120 (ЮВ) 10 км  ливневой дождь  10/10 300 м кучево-дожд. 
[Cb cap]
+6.7 +6 95 +6  985.5  -4.7  729  286           
00 16.09.19 120 (ЮВ) 4000 м  ливневой дождь  10/10 300 м кучево-дожд. 
[Cb cap]
+6.7 +6.4 98 +8  983.2  -2.3  728  285           
03 16.09.19 240 (ЮЗ) 14000 м  слаб. ливневой дождь  10/8 600 м кучево-дожд., средняя 
[Cb cap|Ac As]
+7.6 +7 96 +7  982.5  -0.7  727  284  +6.6       
06 16.09.19 250 (З) 20000 м  в посл. час ливневой дождь  10/8 300 м кучево-дожд., средняя 
[Cb cap|Ac und]
+8.8 +8.1 95 +9  982.3  -0.1  727  282  +6.6      влажная 
09 16.09.19 340 (С) 7000 м  слаб. ливневой дождь  10/10 300 м кучево-дожд. 
[Cb cap]
+8.8 +7.9 94 +9  983.2  0.9  728  283           
12 16.09.19 010 (С) 17000 м  слаб. ливневой дождь  10/10 600 м кучево-дожд. 
[Cb cap]
+8.2 +7.3 94 +8  985.1  1.8  729  284           
15 16.09.19 350 (С) 23000 м  {ливн. осадки}  10/10 600 м кучево-дожд. 
[Cb calv]
+7.4 +6.4 93 +7  986.7  1.6  730  285         
18 16.09.19 290 (З) 20000 м  {ливн. осадки}  10/8 300 м кучево-дожд., средняя 
[Cb calv|Ac und]
+7 +6.3 95 +7  987.6  0.8  731  286    +9.7     
21 16.09.19 280 (З) 20000 м    10/8 300 м кучево-дожд., средняя 
[Cb calv|Ac und]
+6.6 +6.2 97 +6  988.2  0.6  731  287           
00 17.09.19 320 (СЗ) 4000 м  дождь  10/10 100 м 
[Frnb|Ns]
+7.4 +7.3 99 +7  988.4  0.3  732  286           
03 17.09.19 340 (С) 20000 м  {дождь}  10/10 600 м 
[Sc]
+7.1 +6.5 96 +7  989.7  1.2  732  287  +6.3       
06 17.09.19 350 (С) 22000 м  {дождь}  8/4 600 м кучево-дожд., средняя 
[Cb cap|Ac trans]
+7.7 +6 89 +7  990.7  733  286  +6.3      влажная 
09 17.09.19 320 (СЗ) 14000 м  в посл. час ливневой дождь  10/6 300 м кучево-дожд., средняя 
[Cb cap|Ac und]
+7.8 +6.9 94 +8  991.7  734  286           
12 17.09.19 340 (С) 26000 м  {ливн. осадки}  10/8 600 м кучево-дожд., средняя 
[Cb cap|Ac und]
+9 +6.8 86 +8  993  1.4  735  286           
15 17.09.19 340 (С) 17000 м    10/8 600 м кучево-дожд., средняя 
[Cb cap|Ac und]
+8.6 +5.9 83 +9  994.2  1.1  736  286         
18 17.09.19 340 (С) 20000 м    9/6 300 м кучево-дожд., средняя 
[Cb calv|Ac trans]
+7.6 +5.6 87 +8  995.1  0.9  737  288    +9.2     
21 17.09.19 350 (С) 20000 м    10/8 300 м средняя 
[Sc|As trans]
+7.2 +5.8 91 +7  995.9  0.7  737  288           
00 18.09.19 360 (С) 20000 м    10/10 300 м 
[Sc]
+6 +4.5 90 +5  997  1.1  738  290           
03 18.09.19 010 (С) 10 км    10/8 300 м кучево-дожд., средняя 
[Cb calv|Ac und]
+6 +3.9 86 +6  998.2  1.2  739  291  +5.9         
06 18.09.19 010 (С) 21000 м    10/6 600 м кучево-дожд., средняя 
[Cb calv|Ac und]
+6.1 +3.4 83 +5  999.6  1.3  740  291  +5.8        влажная 
09 18.09.19 360 (С) 22000 м    10/8 600 м кучево-дожд., средняя 
[Cb calv|Ac und]
+7 +3 76 +6  1001.1  1.6  741  291           
Время (UTC), дата Ветер
(°,м/с) 
Видим.   Явления Облачность Т
(°С)
Тd
(°С)
f(%) Тe
(°С)
Pmin
(гПа)
dP
(гПа)
Po
(мм)
O2
(г/м3)
Тmin Tmax R s Состояние
почвы

Для получения пояснительной информации подведите курсор к названию столбца.

ПОГОДА в Петрозаводске - архив

Всё, что Вы хотите узнать о погоде в Петрозаводске - удобно и подробно!

Выберите нужную дату (начиная с 1 января 2018* года) и нажмите кнопку "Найти".
Будут отображены архивные сводки погоды по пункту Петрозаводск, начиная с указанной даты.


Отображать данные в формате CSV (для использования в таблицах Excel)


Внимание! Наш архив погоды предназначен исключительно для личного некоммерческого использования в познавательных целях. Если Вам необходимы официальные справки о состоянии погоды (для производственных, юридических, коммерческих и т.п. целей), обращайтесь в органы Росгидромета.

*Примечание: данная дата относится к архиву по метеостанциям СССР (Россия, СНГ, Балтия).
Архив по метеостанциям Зарубежной Европы и Азии (кроме Китая) хранится 10 дней, по другим регионам земного шара (Китай, Африка, Америка, Австралия, Океания) - 1 день.

Петрозаводск - район местоположения метеостанции


Название, широта, долгота, высота метеостанции:
Петрозаводск 61.8°ш. 34.3°д. 110 м над ур. моря [Российская Федерация]

Дополнительная информация

В oтличие oт бoльшинства пoгoдных сайтoв мы публикуем пoдрoбную метеoинфoрмацию в детальнoм прoфессиoнальнoм фoрмате.

Характеристики температуры и влажнoсти вoздуха измеряются на высoте 2 м в тени вдали oт зданий и деревьев.
Скoрoсть ветра измеряется на высoте 10 м (на урoвне рoста челoвека скoрoсть ветра ниже в 1.5-2 раза). Если метеoстанция нахoдится в гoрoде или в лесу, тo скoрoсть ветра занижена на 2-4 м/с пo сравнению с oткрытым местoм. Скoрoсть ветра над акватoриями крупных рек и oзёр, а также на вершинах хoлмoв на 2-5 м/с выше, чем в oбычных услoвиях.
Атмoсфернoе давление в разных тoчках местнoсти мoжет значительнo oтличаться oт давления на метеoстанции, в зависимoсти oт услoвий рельефа (при пoдъёме на 10 м давление пoнижается примернo на 1 мм рт.ст.).